Location: Kalamazoo
(42.2920°N, 85.5870°W)
Time: 05:19:01
(UTC-05:00)

Daily predictions for brighter satellites

Satellite Brightness Start Highest point End
(mag) Time Altitude Azimuth Time Altitude Azimuth Time Altitude Azimuth
Cosmos 2369 Rocket 4.3 03:43:44 23° ENE 03:43:44 23° ENE 03:46:12 10° NE
ATLAS 5 CENTAUR R/B 3.5 04:22:37 31° ENE 04:22:37 31° ENE 04:25:44 10° NE
Cosmos 1943 Rocket 3.2 04:28:16 41° ESE 04:28:24 41° ESE 04:33:33 10° NE
CZ-4B R/B 3.8 04:25:16 10° NNE 04:30:05 56° ENE 04:30:05 56° ENE
Cosmos 2056 Rocket 4.4 04:34:28 46° ENE 04:34:28 46° ENE 04:38:29 10° NNE
CZ-4C R/B 4.3 04:33:26 14° SSE 04:36:11 21° ESE 04:40:17 10° ENE
PAYLOAD B 4.4 04:56:44 10° N 05:01:26 59° NNW 05:01:26 59° NNW
Thor Agena Rocket 4.3 04:59:29 10° SE 05:04:32 52° ENE 05:09:33 10° N
ADEOS II 2.1 05:02:38 10° N 05:07:16 63° NNW 05:07:16 63° NNW
USA 234 3.1 05:01:44 10° NE 05:08:17 89° SE 05:10:15 50° SW
Lacrosse 5 1.7 05:10:00 79° S 05:10:15 82° SE 05:15:20 10° NE
CZ-4B DEB 4.2 05:08:46 10° N 05:13:59 58° WNW 05:13:59 58° WNW
Meteor 1-31 Rocket 3.3 05:10:43 10° NNE 05:14:35 58° E 05:14:56 55° SE
Cosmos 1452 Rocket 4.2 05:10:36 15° S 05:14:46 54° ESE 05:19:55 10° NNE
Okean O Rocket 3.8 05:12:09 10° N 05:13:00 15° N 05:13:00 15° N
Cosmos 2219 4.4 05:14:32 10° NNW 05:19:55 41° ENE 05:25:13 10° SE
Cosmos 2369 Rocket 2.9 05:25:33 36° NW 05:25:33 36° NW 05:30:18 10° N
Feng Yun 1-1 Rocket 4.4 05:24:34 10° NNE 05:30:28 85° ESE 05:36:25 10° SSW
Cosmos 407 Rocket 3.5 05:28:00 24° NNW 05:31:13 60° WSW 05:36:27 10° S
COSMO-SKYMED 1 3.6 05:28:35 10° SE 05:32:43 46° ENE 05:36:53 10° N
Cosmos 2221 Rocket 3.8 05:29:48 10° S 05:34:21 75° E 05:38:55 10° NNE
Cosmos 1656 Rocket 4.0 05:29:16 10° SSW 05:34:53 68° ESE 05:40:33 10° NNE
Cosmos 972 Rocket 4.5 05:35:00 40° WNW 05:35:00 40° WNW 05:40:02 10° N
Cosmos 676 Rocket 3.9 05:29:39 10° NNW 05:34:59 80° WSW 05:40:18 10° SSE
Nadezhda 2 Rocket 4.4 05:31:58 10° NNW 05:37:56 58° W 05:43:54 10° S
CZ-4B R/B 3.7 05:37:00 10° N 05:40:56 72° WNW 05:42:49 31° SSW
Cosmos 1833 4.2 05:41:47 13° NW 05:46:41 53° WSW 05:52:05 10° S
Abrixas 3.8 05:50:43 27° N 05:50:43 27° N 05:53:06 10° NE
Cosmos 1140 Rocket 3.4 05:46:59 10° NNW 05:52:15 89° ENE 05:57:29 10° SSE
Okean 1-7 2.9 05:55:10 10° SSW 05:59:25 68° W 06:03:41 10° N
Lacrosse 5 rocket 3.4 05:57:17 10° NNW 05:59:50 18° NNE 06:02:21 10° ENE
ERS-2 4.2 05:57:09 10° NNW 05:58:08 15° NNW 05:58:08 15° NNW
Cosmos 614 Rocket 4.0 05:56:08 10° NNW 06:01:16 82° ENE 06:06:23 10° SSE
Sich 1 Rocket 4.3 05:57:27 10° NNW 06:01:25 30° W 06:05:19 10° SSW
Cosmos 1745 Rocket 4.0 05:55:21 10° N 06:01:32 87° E 06:07:40 10° S
Cosmos 1417 Rocket 4.4 05:56:10 10° SSW 06:02:17 64° W 06:08:24 10° N
SKYMED 3 4.5 05:58:22 10° S 06:02:43 83° W 06:07:05 10° NNW
Cosmos 1908 Rocket 4.3 05:59:58 10° NNW 06:03:51 29° W 06:07:44 10° SSW
Radarsat Rocket 4.4 05:56:48 10° NNE 06:04:12 86° ESE 06:10:40 10° SSW
ATLAS 5 CENTAUR R/B 2.8 06:04:12 24° WNW 06:05:46 29° NW 06:10:21 10° NNE
Meteor 2-10 Rocket 3.7 06:03:50 10° SSW 06:08:35 44° WNW 06:13:25 10° N
Tiangong 1 1.0 06:07:42 36° SW 06:08:41 65° SSE 06:11:36 10° E
Cosmos 1782 Rocket 3.9 06:05:15 10° NNW 06:09:30 43° W 06:13:42 10° SSW
Okean-O 3.3 06:06:25 10° N 06:10:25 33° WNW 06:13:21 16° SW
CZ-4B R/B 4.5 06:06:52 10° NNW 06:10:54 21° WNW 06:12:00 20° WNW
Cosmos 1943 Rocket 3.0 06:09:50 22° W 06:12:14 30° NW 06:17:06 10° N
Meteor 1-20 Rocket 4.1 06:08:26 10° NNW 06:14:10 78° W 06:19:45 10° S
Meteor 1-28 Rocket 3.0 06:11:17 10° S 06:15:00 82° WSW 06:18:46 10° NNW
Cosmos 1850 Rocket 4.0 06:11:48 10° NNW 06:17:11 87° WSW 06:22:29 10° SSE
SKYMED 2 3.7 06:16:33 10° S 06:20:46 51° W 06:25:02 10° NNW
Cosmos 1782 2.7 06:16:59 10° SSW 06:20:56 77° W 06:24:55 10° N
CZ-4C R/B 2.3 06:18:46 10° SW 06:23:59 60° NW 06:29:59 10° NNE
IDEFIX/ARIANE 42P 4.1 06:19:23 10° NNE 06:24:20 41° E 06:29:12 10° SSE
NOAA 6 4.4 06:23:36 10° N 06:28:28 43° WNW 06:33:18 10° SW
Ariane Rocket 3.1 06:24:04 10° NNE 06:29:12 84° ESE 06:34:17 10° SSW
CSL-04 Rocket 4.0 06:24:43 10° NNE 06:30:06 74° ESE 06:35:32 10° S
Okean 2 Rocket 3.7 06:28:18 10° NNW 06:32:15 33° W 06:36:11 10° SSW
Cosmos 1420 Rocket 4.1 06:27:22 10° SW 06:32:23 51° WNW 06:37:27 10° N
Cosmos 1674 Rocket 3.9 06:32:08 10° S 06:36:29 72° E 06:40:55 10° NNE
Cosmos 1606 2.7 06:33:42 10° SSW 06:37:31 63° W 06:41:24 10° N
Meteor 2-6 Rocket 4.1 06:39:16 10° SSW 06:44:37 68° W 06:50:02 10° N
USA 234 4.0 06:45:01 10° NE 06:50:53 36° NNW 06:56:42 10° W
Cosmos 2297 Rocket 3.1 06:45:39 10° NNW 06:51:12 54° ENE 06:56:42 10° SE
Cosmos 2151 Rocket 3.9 06:47:09 10° NNW 06:51:27 45° W 06:55:43 10° SSW
Cosmos 1331 Rocket 4.5 06:48:21 10° S 06:53:27 67° ESE 06:58:38 10° NNE
Lacrosse 5 3.1 06:49:29 10° W 06:53:45 26° NNW 06:58:00 10° NNE
USA 238 DEB 4.4 06:46:58 10° SSW 06:53:50 61° ESE 07:00:44 10° NE
Okean 1 Rocket 3.5 06:49:29 10° N 06:53:54 70° E 06:58:15 10° SSE
USA 238 4.4 06:47:04 10° SSW 06:53:55 61° ESE 07:00:50 10° NE
Okean 3 4.5 06:49:45 10° S 06:53:56 54° E 06:58:09 10° NNE
CZ-4 R/B 1.9 06:50:18 10° NNE 06:54:28 70° ESE 06:58:34 10° S
Cosmos 1607 3.9 06:48:42 10° SSW 06:54:50 85° WNW 07:01:03 10° NNE
Cosmos 2278 4.2 06:51:45 10° SSW 06:57:20 66° ESE 07:02:56 10° NNE
COSMOS 2455 4.5 06:51:50 10° S 06:57:24 41° ESE 07:02:59 10° NE
CSL-04 Debris 4.2 06:53:59 10° N 06:59:23 73° WNW 07:04:44 10° SSW
